Printer-friendly version

IAU Minor Planet Center

Minor Planet Center

MPEC 2005-F17 : 1998 FF14 = 2005 FF

The following Minor Planet Electronic Circular may be linked-to from your own Web pages, but must not otherwise be redistributed electronically.


Read MPEC 2005-F16 Read MPEC 2005-F18


M.P.E.C. 2005-F17                                Issued 2005 Mar. 17, 12:21 UT

     The Minor Planet Electronic Circulars contain information on unusual
         minor planets and routine data on comets.  They are published
   on behalf of Commission 20 of the International Astronomical Union by the
          Minor Planet Center, Smithsonian Astrophysical Observatory,
                          Cambridge, MA 02138, U.S.A.

                  Supported in part by the Brinson Foundation
             Prepared using the Tamkin Foundation Computer Network

                              MPC@CFA.HARVARD.EDU
          URL http://cfa-www.harvard.edu/iau/mpc.html  ISSN 1523-6714

                              1998 FF14 = 2005 FF

                           Revision to MPEC 1998-F32

Orbital elements:
1998 FF14 = 2005 FF                                                  PHA 0.026A
Epoch 2005 Jan. 30.0 TT = JDT 2453400.5                 MPC
M 234.31698              (2000.0)            P               Q
n   0.70223507     Peri.  301.16740     +0.51633866     +0.85638375
a   1.2535675      Node   359.89699     -0.40083271     +0.24051353
e   0.3123967      Incl.   38.69164     -0.75678764     +0.45690274
P   1.40           H   20.6           G   0.15           U   5
Residuals in seconds of arc
980320 704  1.6+  0.4-    980326 046 (2.1-  1.2-)   050316 703  0.7-  0.7-
980320 704  0.7+  1.4+    980326 046  0.7-  0.3-    050316 703  1.3-  1.3-
980320 704  0.3-  0.4+    980326 046  1.2-  0.4+    050316 703  1.5-  0.6-
980320 704  0.5-  0.3-    980327 658  1.8-  1.3-    050316 703  0.4-  0.6-
980320 704 (3.5-  0.9+)   980327 658  1.6-  0.5-    050316 703  0.5+  1.7-
980324 704  0.2-  1.8+    980327 658  0.0   0.8+    050316 474  0.6+  0.2+
980324 704  1.1+  1.3-    980328 658  0.4-  0.3-    050316 474  0.5+  0.7+
980324 704  0.2+  0.1+    980328 658  1.2-  0.1-    050316 474  0.5+  0.3+
980324 704  0.0   0.6+    980328 658  0.6-  0.7-    050316 474  0.4+  1.1+
980324 046  1.0-  0.7-    980329 658  0.2+  0.7+    050316 143  0.9+  0.3+
980324 046  0.8+  0.3+    980329 658  0.3-  0.3-    050316 143  0.7+  0.0
980324 046  0.2-  1.4-    980329 658  1.1+  0.9+    050317 143  0.6+  0.1+
980324 046 (2.7-  0.2+)   980329 046  1.8+  0.8+    050317 143  0.0   0.0
980325 566  0.2+  0.0     980329 046  1.8+  0.1-    050317 143  0.5+  0.6+
980325 566  0.4+  0.2+    050316 703  0.4-  0.6+    050317 143  0.5-  0.0
980325 566  0.3+  0.5-    050316 703  0.4-  0.2+    050317 854  0.3+  0.5+
980326 046 (2.4-  3.6-)   050316 703  0.3+  0.9+    050317 854  1.2+  1.7+

Ephemeris:
1998 FF14                a,e,i = 1.25, 0.31, 39                  q = 0.8620
Date    TT    R. A. (2000) Decl.     Delta      r     Elong.  Phase     V
2005 03 11    12 28.43   +15 45.7    0.437    1.413   160.3    13.7    20.3
2005 03 21    11 33.95   +10 14.2    0.383    1.372   167.5     9.0    19.8
2005 03 31    10 33.45   +02 32.2    0.371    1.329   148.2    23.3    20.2
2005 04 10    09 41.48   -05 13.6    0.400    1.283   127.1    38.5    20.7
2005 04 20    09 04.69   -11 33.1    0.454    1.236   110.0    49.8    21.2
2005 04 30    08 41.00   -16 27.9    0.517    1.186    96.9    57.4    21.6
2005 05 10    08 26.19   -20 27.5    0.579    1.136    86.8    62.6    21.9

Gareth V. Williams           (C) Copyright 2005 MPC           M.P.E.C. 2005-F17

Read MPEC 2005-F16 Read MPEC 2005-F18


Our Web policy. Index to the CBAT/MPC/ICQ pages.


Valid HTML 4.01!